Weather in Novorusov

Russia / Republic of Adygea     44°59′22″N   40°08′40″E
temp.,
°C
wind,
m/s
gust,
m/s
humid.,
%
clouds,
%
prec.,
mm/h
press.,
hPa
HPBL,
m
26 february, fri
fri2600:00−4wsw369395 0.0 1031137
03:00+1w4129297 0.0 1030399
06:00+2wsw4139694 0.0 1030401
09:00+2wsw51410097 0.0 1029362
12:00+3wsw61598100 0.0 1028390
15:00+3wsw61496100 0.1 1026407
18:00+3wsw61591100 0.0 1026406
21:00+2wsw6138996 0.0 1025322
27 february, sat
sat2700:00+2wsw5138985 0.0 1024339
03:00+1wsw5158851 0.0 1023374
06:00+1sw514873 0.0 1021333
09:00+3wsw4128947 0.0 1021402
12:00+8wsw6127843 0.0 1019730
15:00+8w6127657 0.0 1017763
18:00+4w4108618 0.0 1017193
21:00+2w498534 0.0 1016197
28 february, sun
sun2800:00+3wsw3887100 0.0 1016223
03:00+4wnw51289100 2.9 1016375
06:00+3w31096100 1.3 1016394
09:00+3nnw2499100 4.5 1016189
12:00+2nnw3598100 1.2 1017272
15:00+2nw2497100 2.2 1017302
18:00+2sw2398100 1.9 1018167
21:00+2nw2498100 3.5 1020247
1 march, mon
mon100:000w239496 0.1 102154
03:000wsw359791 0.1 1022168
06:00+1wsw249896 0.1 1023202
09:00+2w239198 0.2 1024344
12:00+3wnw2283100 0.3 1025544
15:00+4nw2374100 0.5 1025741
18:00+2n128049 0.0 102622
21:00+1ene229365 0.0 102883
2 march, tue
tue200:00+1nne2398100 0.2 1029144
03:00+1nne2298100 0.4 1029121
06:000nne2393100 0.1 1029249
09:00+1ene118589 0.1 1030330
12:00+4wnw116957 0.0 1029797
15:00+5w346673 0.0 10271043
18:00+3w367391 0.0 1027411
21:00+2wsw488387 0.0 1027235